| time (UTC) | temp F | wind direction | speed knots | gust knots | rain 1hr in | rain 24hr in | rain mn in | humidity % | barometer mb |
| 20260504081703 | 56 | 152 | 4.3 | 4.3 | 0.00 | 0.00 | 0.00 | 47 | 996.6 |
| 20260504081159 | 56 | 180 | 2.6 | 2.6 | 0.00 | 0.00 | 0.00 | 47 | 996.9 |
| 20260504080655 | 56 | 169 | 1.7 | 2.6 | 0.00 | 0.00 | 0.00 | 46 | 996.8 |
| 20260504080152 | 56 | 113 | 1.7 | 2.6 | 0.00 | 0.00 | 0.00 | 47 | 996.9 |
| 20260504070120 | 55 | 63 | 0.0 | 1.7 | 0.00 | 0.00 | 0.00 | 49 | 998.1 |
| 20260504050508 | 52 | 90 | 0.0 | 0.0 | 0.00 | 0.00 | 0.00 | 57 | 1000.2 |
| 20260504050005 | 52 | 90 | 0.0 | 0.0 | 0.00 | 0.00 | 0.00 | 57 | 1000.3 |
| 20260504045501 | 52 | 103 | 0.0 | 0.9 | 0.00 | 0.00 | 0.00 | 57 | 1000.5 |
| 20260504044957 | 53 | 81 | 0.0 | 0.0 | 0.00 | 0.00 | 0.00 | 56 | 1000.7 |
| 20260504044455 | 53 | 90 | 0.0 | 0.0 | 0.00 | 0.00 | 0.00 | 55 | 1000.8 |
| 20260504043952 | 53 | 69 | 0.0 | 0.9 | 0.00 | 0.00 | 0.00 | 55 | 1000.6 |
| 20260504043449 | 53 | 99 | 0.0 | 0.9 | 0.00 | 0.00 | 0.00 | 55 | 1000.9 |
| 20260504042946 | 52 | 99 | 0.0 | 0.0 | 0.00 | 0.00 | 0.00 | 56 | 1000.9 |
| 20260504042443 | 52 | 90 | 0.0 | 0.0 | 0.00 | 0.00 | 0.00 | 56 | 1000.9 |
| 20260504041940 | 52 | 90 | 0.0 | 0.0 | 0.00 | 0.00 | 0.00 | 57 | 1001.0 |
| 20260504041436 | 52 | 81 | 0.0 | 0.0 | 0.00 | 0.00 | 0.00 | 56 | 1001.2 |
| 20260504040932 | 52 | 81 | 0.0 | 0.0 | 0.00 | 0.00 | 0.00 | 55 | 1001.1 |
| 20260504040430 | 53 | 90 | 0.0 | 0.0 | 0.00 | 0.00 | 0.00 | 55 | 1001.1 |
| 20260504035925 | 53 | 90 | 0.9 | 0.9 | 0.00 | 0.00 | 0.00 | 55 | 1001.5 |
| 20260504035423 | 53 | 99 | 0.0 | 0.0 | 0.00 | 0.00 | 0.00 | 54 | 1001.7 |
| 20260504034920 | 53 | 99 | 0.0 | 0.0 | 0.00 | 0.00 | 0.00 | 53 | 1001.7 |
| 20260504034417 | 53 | 98 | 0.0 | 0.0 | 0.00 | 0.00 | 0.00 | 53 | 1001.8 |
| 20260504033913 | 53 | 98 | 0.0 | 0.0 | 0.00 | 0.00 | 0.00 | 53 | 1001.9 |
| 20260504033411 | 54 | 98 | 0.0 | 0.0 | 0.00 | 0.00 | 0.00 | 52 | 1001.9 |
| 20260504032903 | 54 | 98 | 0.0 | 0.0 | 0.00 | 0.00 | 0.00 | 51 | 1002.2 |
| 20260504032400 | 55 | 98 | 0.0 | 0.0 | 0.00 | 0.00 | 0.00 | 51 | 1002.1 |
| 20260504031856 | 55 | 90 | 0.0 | 0.0 | 0.00 | 0.00 | 0.00 | 49 | 1002.1 |
| 20260504031353 | 55 | 90 | 0.0 | 0.0 | 0.00 | 0.00 | 0.00 | 48 | 1002.2 |
| 20260504030850 | 55 | 90 | 0.0 | 0.0 | 0.00 | 0.00 | 0.00 | 47 | 1002.1 |
| 20260504030348 | 56 | 90 | 0.0 | 0.0 | 0.00 | 0.00 | 0.00 | 46 | 1002.1 |
| 20260504025843 | 56 | 90 | 0.0 | 0.0 | 0.00 | 0.00 | 0.00 | 45 | 1002.1 |
| 20260504025340 | 57 | 90 | 0.0 | 0.0 | 0.00 | 0.00 | 0.00 | 44 | 1002.3 |
| 20260504024837 | 57 | 90 | 0.0 | 0.0 | 0.00 | 0.00 | 0.00 | 44 | 1002.2 |
| 20260504024333 | 57 | 90 | 0.0 | 0.0 | 0.00 | 0.00 | 0.00 | 43 | 1002.2 |
| 20260504023830 | 58 | 90 | 0.0 | 0.0 | 0.00 | 0.00 | 0.00 | 42 | 1002.0 |
| 20260504023327 | 58 | 90 | 0.0 | 0.0 | 0.00 | 0.00 | 0.00 | 41 | 1002.3 |
| 20260504022823 | 59 | 90 | 0.0 | 0.0 | 0.00 | 0.00 | 0.00 | 40 | 1002.4 |
| 20260504022320 | 60 | 90 | 0.0 | 0.0 | 0.00 | 0.00 | 0.00 | 38 | 1002.5 |
| 20260504021816 | 60 | 90 | 0.0 | 0.0 | 0.00 | 0.00 | 0.00 | 38 | 1002.6 |
| 20260504021314 | 60 | 90 | 0.0 | 0.0 | 0.00 | 0.00 | 0.00 | 37 | 1002.4 |
| 20260504020811 | 61 | 90 | 0.0 | 0.0 | 0.00 | 0.00 | 0.00 | 36 | 1002.7 |
| 20260504020308 | 61 | 90 | 0.0 | 0.0 | 0.00 | 0.00 | 0.00 | 36 | 1002.5 |
| 20260504015803 | 62 | 90 | 0.0 | 0.0 | 0.00 | 0.00 | 0.00 | 36 | 1002.4 |
| 20260504015300 | 62 | 23 | 0.0 | 0.0 | 0.00 | 0.00 | 0.00 | 35 | 1002.7 |
| 20260504014756 | 62 | 209 | 0.0 | 1.7 | 0.00 | 0.00 | 0.00 | 35 | 1002.5 |
| 20260504014252 | 62 | 350 | 0.0 | 0.0 | 0.00 | 0.00 | 0.00 | 35 | 1002.6 |
| 20260504013750 | 63 | 350 | 0.0 | 0.0 | 0.00 | 0.00 | 0.00 | 34 | 1002.4 |
| 20260504013248 | 64 | 350 | 0.0 | 1.7 | 0.00 | 0.00 | 0.00 | 33 | 1002.5 |
| 20260504012744 | 64 | 151 | 0.0 | 0.0 | 0.00 | 0.00 | 0.00 | 33 | 1002.6 |
| 20260504012242 | 64 | 151 | 0.0 | 0.0 | 0.00 | 0.00 | 0.00 | 32 | 1002.5 |
| 20260504011739 | 65 | 66 | 0.0 | 0.9 | 0.00 | 0.00 | 0.00 | 31 | 1002.5 |
| 20260504011235 | 65 | 35 | 0.0 | 1.7 | 0.00 | 0.00 | 0.00 | 31 | 1002.7 |
| 20260504010731 | 66 | 180 | 0.9 | 2.6 | 0.00 | 0.00 | 0.00 | 30 | 1002.7 |
| 20260504010227 | 66 | 99 | 0.0 | 0.0 | 0.00 | 0.00 | 0.00 | 30 | 1002.7 |
| 20260504005724 | 66 | 15 | 1.7 | 1.7 | 0.00 | 0.00 | 0.00 | 30 | 1002.7 |
| 20260504005221 | 67 | 151 | 0.0 | 1.7 | 0.00 | 0.00 | 0.00 | 30 | 1002.7 |
| 20260504004719 | 67 | 143 | 0.0 | 4.3 | 0.00 | 0.00 | 0.00 | 30 | 1002.8 |
| 20260504004215 | 67 | 145 | 0.0 | 0.0 | 0.00 | 0.00 | 0.00 | 29 | 1002.6 |
| 20260504003712 | 68 | 340 | 0.0 | 1.7 | 0.00 | 0.00 | 0.00 | 29 | 1002.7 |
| 20260504003209 | 68 | 174 | 0.0 | 2.6 | 0.00 | 0.00 | 0.00 | 29 | 1002.8 |
| 20260504002706 | 68 | 98 | 0.0 | 2.6 | 0.00 | 0.00 | 0.00 | 29 | 1002.8 |
| 20260504002203 | 68 | 66 | 0.9 | 4.3 | 0.00 | 0.00 | 0.00 | 30 | 1002.7 |
| 20260504001701 | 68 | 123 | 0.0 | 3.5 | 0.00 | 0.00 | 0.00 | 29 | 1002.8 |
| 20260504001157 | 68 | 168 | 0.0 | 3.5 | 0.00 | 0.00 | 0.00 | 29 | 1003.0 |
| 20260504000654 | 69 | 334 | 0.9 | 3.5 | 0.00 | 0.00 | 0.00 | 28 | 1002.7 |
| 20260504000151 | 69 | 98 | 0.0 | 2.6 | 0.00 | 0.00 | 0.00 | 29 | 1003.0 |
| 20260503235649 | 69 | 84 | 0.0 | 1.7 | 0.00 | 0.00 | 0.00 | 28 | 1002.8 |
| 20260503235145 | 69 | 94 | 0.0 | 1.7 | 0.00 | 0.00 | 0.00 | 28 | 1003.0 |
| 20260503234644 | 69 | 285 | 0.9 | 3.5 | 0.00 | 0.00 | 0.00 | 28 | 1002.8 |
| 20260503234142 | 69 | 139 | 0.0 | 2.6 | 0.00 | 0.00 | 0.00 | 27 | 1002.9 |
| 20260503233638 | 69 | 117 | 0.0 | 2.6 | 0.00 | 0.00 | 0.00 | 27 | 1002.9 |
| 20260503233134 | 69 | 140 | 0.0 | 2.6 | 0.00 | 0.00 | 0.00 | 27 | 1002.9 |
| 20260503232631 | 70 | 93 | 2.6 | 6.1 | 0.00 | 0.00 | 0.00 | 26 | 1003.1 |
| 20260503232128 | 70 | 40 | 0.0 | 1.7 | 0.00 | 0.00 | 0.00 | 27 | 1003.3 |
| 20260503231626 | 70 | 23 | 1.7 | 2.6 | 0.00 | 0.00 | 0.00 | 26 | 1003.1 |
| 20260503231122 | 70 | 180 | 0.0 | 3.5 | 0.00 | 0.00 | 0.00 | 27 | 1003.4 |
| 20260503230620 | 70 | 162 | 0.0 | 4.3 | 0.00 | 0.00 | 0.00 | 27 | 1003.3 |
| 20260503230117 | 70 | 114 | 0.0 | 1.7 | 0.00 | 0.00 | 0.00 | 27 | 1003.2 |
| 20260503225614 | 70 | 146 | 1.7 | 3.5 | 0.00 | 0.00 | 0.00 | 26 | 1003.1 |
| 20260503225113 | 71 | 106 | 0.9 | 2.6 | 0.00 | 0.00 | 0.00 | 25 | 1003.5 |
| 20260503224611 | 71 | 90 | 0.0 | 6.1 | 0.00 | 0.00 | 0.00 | 26 | 1003.3 |
| 20260503224109 | 71 | 83 | 0.0 | 2.6 | 0.00 | 0.00 | 0.00 | 25 | 1003.3 |
| 20260503223607 | 71 | 188 | 0.0 | 1.7 | 0.00 | 0.00 | 0.00 | 25 | 1003.6 |
| 20260503223102 | 71 | 60 | 1.7 | 4.3 | 0.00 | 0.00 | 0.00 | 25 | 1003.5 |
| 20260503222600 | 72 | 96 | 0.9 | 2.6 | 0.00 | 0.00 | 0.00 | 25 | 1003.5 |
| 20260503222058 | 71 | 82 | 0.0 | 2.6 | 0.00 | 0.00 | 0.00 | 25 | 1003.4 |
| 20260503221556 | 71 | 221 | 1.7 | 2.6 | 0.00 | 0.00 | 0.00 | 26 | 1003.4 |
| 20260503221053 | 71 | 319 | 0.0 | 2.6 | 0.00 | 0.00 | 0.00 | 28 | 1003.7 |
| 20260503220549 | 70 | 262 | 0.9 | 5.2 | 0.00 | 0.00 | 0.00 | 26 | 1003.6 |
| 20260503220046 | 71 | 160 | 0.9 | 4.3 | 0.00 | 0.00 | 0.00 | 25 | 1003.7 |
| 20260503215543 | 71 | 151 | 0.0 | 5.2 | 0.00 | 0.00 | 0.00 | 25 | 1003.7 |
| 20260503215040 | 71 | 15 | 0.0 | 0.9 | 0.00 | 0.00 | 0.00 | 26 | 1003.6 |
| 20260503214539 | 71 | 139 | 0.0 | 5.2 | 0.00 | 0.00 | 0.00 | 28 | 1003.6 |
| 20260503214035 | 71 | 180 | 0.9 | 6.1 | 0.00 | 0.00 | 0.00 | 27 | 1003.6 |
| 20260503213533 | 71 | 186 | 0.9 | 8.7 | 0.00 | 0.00 | 0.00 | 27 | 1003.6 |
| 20260503213030 | 72 | 240 | 0.0 | 1.7 | 0.00 | 0.00 | 0.00 | 28 | 1003.8 |
| 20260503212527 | 71 | 140 | 0.0 | 2.6 | 0.00 | 0.00 | 0.00 | 28 | 1003.7 |
| 20260503212025 | 71 | 90 | 0.0 | 2.6 | 0.00 | 0.00 | 0.00 | 28 | 1004.0 |
| 20260503211521 | 72 | 168 | 2.6 | 4.3 | 0.00 | 0.00 | 0.00 | 26 | 1004.0 |
| 20260503211017 | 72 | 166 | 0.9 | 2.6 | 0.00 | 0.00 | 0.00 | 29 | 1003.8 |
| 20260503210514 | 72 | 15 | 2.6 | 5.2 | 0.00 | 0.00 | 0.00 | 27 | 1003.7 |
| 20260503210010 | 72 | 297 | 0.0 | 2.6 | 0.00 | 0.00 | 0.00 | 30 | 1004.0 |
| 20260503205506 | 72 | 90 | 0.0 | 1.7 | 0.00 | 0.00 | 0.00 | 29 | 1003.7 |
| 20260503205003 | 72 | 96 | 0.0 | 2.6 | 0.00 | 0.00 | 0.00 | 30 | 1004.1 |
| 20260503204500 | 72 | 114 | 0.9 | 2.6 | 0.00 | 0.00 | 0.00 | 30 | 1004.1 |
| 20260503203956 | 72 | 19 | 1.7 | 3.5 | 0.00 | 0.00 | 0.00 | 31 | 1004.1 |
| 20260503203454 | 72 | 144 | 1.7 | 2.6 | 0.00 | 0.00 | 0.00 | 32 | 1004.1 |
| 20260503202950 | 72 | 75 | 0.0 | 2.6 | 0.00 | 0.00 | 0.00 | 30 | 1004.2 |
| 20260503202449 | 72 | 69 | 2.6 | 2.6 | 0.00 | 0.00 | 0.00 | 30 | 1004.2 |
| 20260503201947 | 72 | 356 | 0.0 | 1.7 | 0.00 | 0.00 | 0.00 | 30 | 1004.1 |
| 20260503201444 | 72 | 18 | 2.6 | 4.3 | 0.00 | 0.00 | 0.00 | 29 | 1004.2 |
| 20260503200941 | 72 | 11 | 1.7 | 3.5 | 0.00 | 0.00 | 0.00 | 29 | 1004.5 |
| 20260503200438 | 72 | 83 | 0.9 | 5.2 | 0.00 | 0.00 | 0.00 | 28 | 1004.4 |
| 20260503195934 | 71 | 187 | 0.9 | 4.3 | 0.00 | 0.00 | 0.00 | 29 | 1004.5 |
| 20260503195432 | 71 | 128 | 0.0 | 6.1 | 0.00 | 0.00 | 0.00 | 28 | 1004.7 |
| 20260503194928 | 71 | 166 | 0.9 | 7.0 | 0.00 | 0.00 | 0.00 | 28 | 1004.9 |
| 20260503194425 | 72 | 334 | 1.7 | 5.2 | 0.00 | 0.00 | 0.00 | 29 | 1004.7 |
| 20260503193920 | 73 | 122 | 3.5 | 5.2 | 0.00 | 0.00 | 0.00 | 28 | 1004.7 |
| 20260503193416 | 72 | 307 | 0.0 | 5.2 | 0.00 | 0.00 | 0.00 | 28 | 1004.9 |
| 20260503192912 | 71 | 191 | 1.7 | 2.6 | 0.00 | 0.00 | 0.00 | 29 | 1004.8 |
| 20260503192409 | 73 | 46 | 3.5 | 5.2 | 0.00 | 0.00 | 0.00 | 27 | 1004.5 |
| 20260503191904 | 71 | 176 | 1.7 | 5.2 | 0.00 | 0.00 | 0.00 | 27 | 1004.8 |
| 20260503191402 | 71 | 334 | 0.0 | 6.1 | 0.00 | 0.00 | 0.00 | 27 | 1004.8 |
| 20260503190858 | 72 | 120 | 1.7 | 4.3 | 0.00 | 0.00 | 0.00 | 28 | 1005.0 |
| 20260503190355 | 72 | 257 | 1.7 | 6.1 | 0.00 | 0.00 | 0.00 | 31 | 1004.7 |
| 20260503185852 | 71 | 232 | 0.0 | 5.2 | 0.00 | 0.00 | 0.00 | 30 | 1004.6 |
| 20260503185349 | 72 | 0 | 0.0 | 3.5 | 0.00 | 0.00 | 0.00 | 29 | 1004.9 |
| 20260503184848 | 73 | 19 | 5.2 | 7.8 | 0.00 | 0.00 | 0.00 | 29 | 1004.7 |
| 20260503184345 | 72 | 150 | 2.6 | 3.5 | 0.00 | 0.00 | 0.00 | 30 | 1005.0 |
| 20260503183840 | 72 | 286 | 0.9 | 3.5 | 0.00 | 0.00 | 0.00 | 32 | 1005.0 |
| 20260503183338 | 72 | 48 | 1.7 | 5.2 | 0.00 | 0.00 | 0.00 | 31 | 1004.9 |
| 20260503182835 | 73 | 106 | 0.9 | 5.2 | 0.00 | 0.00 | 0.00 | 32 | 1005.1 |
| 20260503182334 | 72 | 337 | 0.0 | 2.6 | 0.00 | 0.00 | 0.00 | 36 | 1005.1 |
| 20260503181831 | 71 | 132 | 1.7 | 7.8 | 0.00 | 0.00 | 0.00 | 33 | 1005.2 |
| 20260503181328 | 71 | 163 | 1.7 | 4.3 | 0.00 | 0.00 | 0.00 | 33 | 1005.1 |
| 20260503180824 | 72 | 30 | 1.7 | 3.5 | 0.00 | 0.00 | 0.00 | 33 | 1004.9 |
| 20260503180322 | 71 | 74 | 1.7 | 5.2 | 0.00 | 0.00 | 0.00 | 33 | 1005.0 |
| 20260503175818 | 72 | 84 | 0.0 | 4.3 | 0.00 | 0.00 | 0.00 | 36 | 1005.0 |
| 20260503175317 | 71 | 265 | 0.0 | 4.3 | 0.00 | 0.00 | 0.00 | 37 | 1005.0 |
| 20260503174812 | 73 | 23 | 0.0 | 4.3 | 0.00 | 0.00 | 0.00 | 37 | 1005.2 |
| 20260503174310 | 72 | 154 | 0.0 | 5.2 | 0.00 | 0.00 | 0.00 | 34 | 1005.1 |
| 20260503173806 | 72 | 114 | 0.0 | 3.5 | 0.00 | 0.00 | 0.00 | 35 | 1005.2 |
| 20260503173302 | 72 | 262 | 0.9 | 4.3 | 0.00 | 0.00 | 0.00 | 34 | 1005.3 |
| 20260503172759 | 71 | 346 | 0.9 | 5.2 | 0.00 | 0.00 | 0.00 | 33 | 1005.4 |
| 20260503172256 | 73 | 0 | 0.0 | 2.6 | 0.00 | 0.00 | 0.00 | 36 | 1005.2 |
| 20260503171752 | 73 | 328 | 2.6 | 2.6 | 0.00 | 0.00 | 0.00 | 37 | 1005.3 |
| 20260503171249 | 71 | 24 | 1.7 | 4.3 | 0.00 | 0.00 | 0.00 | 38 | 1005.0 |
| 20260503170746 | 71 | 319 | 1.7 | 9.6 | 0.00 | 0.00 | 0.00 | 36 | 1005.4 |
| 20260503170243 | 71 | 169 | 3.5 | 12.2 | 0.00 | 0.00 | 0.00 | 37 | 1005.4 |
| 20260503160205 | 69 | 294 | 0.9 | 6.1 | 0.00 | 0.00 | 0.00 | 38 | 1005.3 |
| 20260503150635 | 68 | 19 | 0.0 | 6.1 | 0.00 | 0.00 | 0.00 | 39 | 1005.1 |
| 20260503150131 | 68 | 0 | 2.6 | 5.2 | 0.00 | 0.00 | 0.00 | 39 | 1004.7 |
| 20260503131025 | 63 | 358 | 3.5 | 4.3 | 0.00 | 0.00 | 0.00 | 44 | 1004.2 |
| 20260503130522 | 62 | 26 | 0.0 | 3.5 | 0.00 | 0.00 | 0.00 | 45 | 1004.1 |
| 20260503110413 | 52 | 75 | 0.9 | 0.9 | 0.00 | 0.00 | 0.00 | 55 | 1002.9 |